Current Version              Previous Version:    01  02  03  04  05  06  07  08  09  10  11  12  13  14  15  16  17  18  19  20  21  22  23  24  25  26  27  28  29  30  
   31  32  33  34  35  36  37  38  39  40  41  42  43  44  45  46  47  48  49  50  51  52  53  54  55  56  57  58  59  60  

[Printable]
109
ASUS44 KEWX 310802
RWRTX
SOUTH TEXAS REGIONAL WEATHER ROUNDUP
NATIONAL WEATHER SERVICE AUSTIN/SAN ANTONIO TX
300 AM CDT FRI OCT 31 2014

NOTE: "FAIR" INDICATED FEW OR NO CLOUDS BELOW 12,000 FEET WITH NO
SIGNIFICANT WEATHER AND/OR OBSTRUCTIONS TO VISIBILITY.

* - THESE STATIONS ARE NOT NWS OR FAA STATIONS...AND ARE NOT SUBJECT
    TO NWS AND FAA QUALITY CONTROL.

TXZ171-172-183>190-310900-
TEXAS HILL COUNTRY AND EDWARDS PLATEAU

CITY           SKY/WX    TMP DP  RH WIND       PRES   REMARKS
JUNCTION       MOCLDY    69  62  78 NE12      30.19R
*LLANO         CLOUDY    66  63  88 CALM      30.21S
BURNET         CLOUDY    64  61  90 N5        30.20S
*HORSESHOE BAY RAIN      64  61  88 CALM      30.18S
*KERRVILLE     TSTM      64  62  93 N5        30.18R
*FREDERICKSBRG TSTM      64  62  94 CALM      30.18S
*ROCKSPRINGS   MOCLDY    66  57  72 CALM      30.20R
*BOERNE STAGE  CLOUDY    64  61  88 N7        30.16R
*CASTROVILLE   MOCLDY    65  57  75 N3        30.13R
HONDO          CLEAR     61  58  90 N7        30.13R
*UVALDE        CLEAR     65  62  88 NE6       30.11R
DEL RIO        CLEAR     68  59  73 NE6       30.09R
LAUGHLIN AFB   CLEAR     63  58  84 NE6       30.10R
CARRIZO SPRGS  CLEAR     68  63  83 SE5       30.07F
$$

TXZ173-191>194-202-209-217>225-228-310900-
CENTRAL AND SOUTH CENTRAL TEXAS

CITY           SKY/WX    TMP DP  RH WIND       PRES   REMARKS
GEORGETOWN     CLOUDY    63  57  82 NW6       30.17R
AUSTIN/BERGSTM RAIN      62  59  90 N9        30.17R FOG
AUSTIN/MABRY   LGT RAIN  63  61  93 NE3       30.17R
*AUSTIN/EXEC   LGT RAIN  63  59  88 W5        30.17R
*LAGO VISTA    LGT RAIN  62  59  89 N7        30.18R
SAN MARCOS     CLOUDY    64  57  77 N9        30.14S
NEW BRAUNFELS  LGT RAIN  66  32  28 N15       30.12R
RANDOLPH AFB   LGT RAIN  66  63  90 N3        30.12S
PT SAN ANTONIO CLOUDY    70  65  84 NE3       30.10R
SAN ANTONIO    DRIZZLE   70  62  76 NE6       30.12R
STINSON FIELD  CLOUDY    70  66  87 NE7       30.10R
*PLEASANTON    PTCLDY    65  64  94 NE3       30.09S
*LA GRANGE     LGT RAIN  64  58  81 CALM      30.11S
*GIDDINGS      CLOUDY    65  55  69 CALM      30.17R
*GONZALES      CLOUDY   N/A N/A N/A NE5       30.11S
$$

TXZ163>164-176>182-195>201-210>213-226-227-235-310900-
SOUTHEAST TEXAS

CITY           SKY/WX    TMP DP  RH WIND       PRES   REMARKS
COLLEGE STN    PTCLDY    64  51  62 N5        30.12S
*BRYAN         PTCLDY    60  55  82 N3        30.14S
*CALDWELL      MOCLDY    63  52  67 CALM      30.16S
*CROCKETT      PTCLDY    55  54  94 CALM      30.15S
*BRENHAM       PTCLDY    65  57  73 CALM      30.13S
HUNTSVILLE     CLEAR     57  48  72 CALM      30.12S
CONROE         CLOUDY    58  55  90 CALM      30.12S
HOUSTON BUSH   MOCLDY    63  54  72 CALM      30.10F
HOUSTON HOBBY  MOCLDY    64  58  80 CALM      30.09S
*HOUSTON SW AP PTCLDY    55  53  95 CALM      30.11S
PEARLAND       PTCLDY    63  58  83 CALM      30.11R
HOUSTON HOOKS  CLOUDY    63  56  78 CALM      30.11S
ELLINGTON FLD  CLEAR     64  57  77 CALM      30.10S
SUGAR LAND     PTCLDY    62  58  86 N3        30.10S
*HOUSTON EXEC  CLOUDY    63 N/A N/A NW3       30.12S
*CLEVELAND MUN CLOUDY    58  56  94 CALM      30.12R
*WHARTON       CLEAR     59  58  96 CALM      30.11S
*COLUMBUS      CLOUDY    61  57  88 N5        30.11R
$$

TXZ214>216-236>238-310900-
THE UPPER TEXAS COAST

CITY           SKY/WX    TMP DP  RH WIND       PRES   REMARKS
*ORANGE        CLEAR    N/A N/A N/A NW3       30.11S
PORT ARTHUR    CLEAR     56  52  86 N5        30.08S
GALVESTON      MOCLDY    69  58  67 NE6       30.10S
ANGLETON       CLEAR     57  57 100 N3        30.09F
*BAY CITY        N/A     59  59 100 N3        30.09S
PALACIOS       CLEAR     63  61  93 NE5       30.08S
$$

TXZ229>234-239>247-310900-
TEXAS COASTAL BEND AND RIO GRANDE PLAINS

CITY           SKY/WX    TMP DP  RH WIND       PRES   REMARKS
VICTORIA       PTCLDY    65  63  93 NE7       30.09S FOG
*BEEVILLE      FOG       65  65 100 E3        30.07S VSB 1/4
ROCKPORT       CLEAR     70  67  90 S6        30.05F
*PORT ARANSAS  CLEAR     74  69  83 CALM      30.06S
*PORT LAVACA   CLOUDY    69  67  93 NE5       30.08F
*INGLESIDE     CLEAR     69  67  93 CALM      30.07S
CORPUS CHRISTI PTCLDY    69  68  96 SE3       30.06F
CORPUS NAS     CLEAR     72  71  97 SE5       30.06S
*ROBSTOWN      NOT AVBL
ALICE          CLEAR     68  66  93 CALM      30.07S
KINGSVILLE NAS PTCLDY    67  67 100 CALM      30.07S
COTULLA        CLEAR     70  66  87 S5        30.07F
*FAITH RANCH   CLEAR     68  63  83 SE5       30.09S
LAREDO         CLEAR     72  67  84 SE7       30.10S
$$

TXZ248>255-310900-
DEEP SOUTH TEXAS

CITY           SKY/WX    TMP DP  RH WIND       PRES   REMARKS
BROWNSVILLE    CLEAR     69  67  93 CALM      30.06F
PORT ISABEL    CLEAR     71  67  87 E3        30.05F
*SOUTH PADRE     N/A    N/A N/A N/A E8        30.05F
HARLINGEN      CLEAR     68  67  96 CALM      30.05F
*HEBBRONVILLE  CLEAR     65  64  94 CALM      30.09F
MCALLEN        CLEAR     70  67  90 SE3       30.08S
*WESLACO       CLEAR     70  66  87 S3        30.06F
FALFURRIAS     CLEAR     67  65  96 CALM      30.07S
EDINBURG       CLEAR     70  66  88 CALM      30.07S
*ZAPATA        CLEAR     70  67  89 CALM      30.07S
$$

TXZ213>215-236>238-242>244-246-247-251-254-255-310900-
CMAN STATIONS

STATION/POSITION TIME  TEMP    WIND        PRES    WAVE
                       AIR SEA DIR/SP/G            HT/PER
                 (UTC) (F)     (DEG/KT/KT) (MB)    (FT/S)
SABINE PASS      0700   65 74  360/  5/  6 1018.8
SEA RIM ST PARK  0700   62     340/  3/  4 1019.3
NORTH JETTY/GLS  0700   71 76   70/  5/  7   N/A
EAGLE POINT      0700   70 75   20/  4/  5 1019.0
MORGANS POINT    0700   67      20/  5/  6 1019.0
MISSION/ARANSAS  0700          120/  4     1019.0
PORT O`CONNOR    0700           80/  6/  7   N/A
PORT ARANSAS     0700   76 78  110/  7/  8 1018.7
MALAQUITE BEACH  0700   77 80  120/  7/  8 1017.4
BAFFIN BAY       0700   76 85  120/  6/  7 1018.0
PORT ISABEL      0700   77 79   80/  4/  6 1017.7
$$

GMZ080-GMZ150>470-310900-
OFFSHORE BUOY REPORTS

STATION/POSITION TIME  TEMP    WIND        PRES    WAVE
                       AIR SEA DIR/SP/G            HT/PER
                 (UTC) (F)     (DEG/KT/KT) (MB)    (FT/S)
20 E GALVESTON   0800   72 77   20/  6/  8 1018.2    1/ 7
90 E PT ARANSAS  0800   75 79   60/  6/  8 1018.4    2/ 5
35 NE PT MANSFLD 0700   77 80  120/  6/  8 1017.6    2/ 5
200 E PT ISABEL  0700   76 81   20/ 10/ 14 1016.7    3/ 5
$$